User: anonymous   Login
Location: Unspecified
(0.0000°N, 0.0000°E)
Time: 19:20:58
(UTC+00:00)
Language:

AEROCUBE 6B - Orbit

View from above orbital plane
View from above orbital plane
View from above satellite
View from above satellite

Ground track
Ground track

The orbit data is extracted from the following two-line orbital elements,

1 40046U 14033AN  19340.88218015 +.00000203 +00000-0 +36553-4 0  9996
2 40046 097.7481 205.2146 0055686 255.3671 104.1360 14.75456480293565
Epoch (UTC): 06 December 2019 21:10:20
Eccentricity: 0.0055686
inclination: 97.7481°
perigee height: 604 km
apogee height: 683 km
right ascension of ascending node: 205.2146°
argument of perigee: 255.3671°
revolutions per day: 14.75456480
mean anomaly at epoch: 104.1360°
orbit number at epoch: 29356

The dashed part of the orbit path shows where the satellite is in the earth's shadow,  

DLR